Weather History for Wooster, OH

Change the Weather History Date:

Tuesday, October 16, 2012

  Actual Average Record
Temperature  
Mean Temperature 48 °F -  
Max Temperature 59 °F 59 °F 75 °F (1999)
Min Temperature 39 °F 37 °F 32 °F (1997)
Degree Days  
Heating Degree Days 17    
Moisture  
Dew Point 37 °F    
Average Humidity 69    
Maximum Humidity 93    
Minimum Humidity 46    
Precipitation  
Precipitation 0.00 in - - ()
Sea Level Pressure  
Sea Level Pressure 29.94 in    
Wind  
Wind Speed 4 mph (West)    
Max Wind Speed 8 mph    
Max Gust Speed -    
Visibility 10 miles    
Events      
Averages and records for this station are not official NWS values.
T = Trace of Precipitation, MM = Missing Value Source: NWS Daily Summary

Daily Weather History Graph

Daily Weather History Graph

Search for Another Location

Airport:

Trip Planner

Search our weather history database for the weather conditions in past years. The results will help you decide how hot, cold, wet, or windy it might be!

Date:

Astronomy

Oct. 16, 2012 Rise Set
Actual Time 7:40 AM EDT 6:44 PM EDT
Civil Twilight 7:12 AM EDT 7:12 PM EDT
Nautical Twilight 6:40 AM EDT 7:44 PM EDT
Astronomical Twilight 6:09 AM EDT 8:16 PM EDT
Moon 9:02 AM EDT (10/16) 7:27 PM EDT (10/16)
Length of Visible Light 11h 59m
Length of Day
11h 04m
New Moon, 2% of the Moon is Illuminated
Oct 16
New Moon
Oct 21
First Quarter
Oct 29
Full
Nov 6
Last Quarter
Nov 13
New

Hourly Weather History & Observations

Time (EDT) Temp. Windchill Dew Point Humidity Pressure Visibility Wind Dir Wind Speed Gust Speed Precip Events Conditions
12:56 AM 46.9 °F - 37.9 °F 71% 29.94 in 10.0 mi WNW 5.8 mph - N/A   Overcast
1:56 AM 46.0 °F 43.9 °F 37.9 °F 73% 29.95 in 10.0 mi WNW 4.6 mph - N/A   Overcast
2:56 AM 46.0 °F 43.9 °F 37.9 °F 73% 29.96 in 10.0 mi NW 4.6 mph - N/A   Overcast
3:56 AM 46.0 °F 44.8 °F 37.9 °F 73% 29.95 in 10.0 mi WNW 3.5 mph - N/A   Overcast
4:08 AM 46.4 °F 44.3 °F 37.4 °F 71% 29.93 in 10.0 mi WNW 4.6 mph - N/A   Overcast
4:42 AM 44.6 °F 42.2 °F 37.4 °F 76% 29.94 in 10.0 mi NW 4.6 mph - N/A   Overcast
4:56 AM 45.0 °F 43.5 °F 37.9 °F 76% 29.95 in 10.0 mi WNW 3.5 mph - N/A   Overcast
8:56 AM 46.0 °F 43.9 °F 37.0 °F 71% 30.01 in 10.0 mi West 4.6 mph - N/A   Overcast
9:56 AM 46.9 °F - 36.0 °F 66% 30.02 in 10.0 mi NW 5.8 mph - N/A   Overcast
10:56 AM 48.0 °F - 36.0 °F 63% 30.01 in 10.0 mi WSW 4.6 mph - N/A   Overcast
11:52 AM 48.2 °F - 35.6 °F 62% 30.00 in 10.0 mi West 5.8 mph - N/A   Partly Cloudy
12:56 PM 52.0 °F - 36.0 °F 54% 29.99 in 10.0 mi West 5.8 mph - N/A   Clear
1:56 PM 55.0 °F - 37.0 °F 51% 29.96 in 10.0 mi SSW 8.1 mph - N/A   Clear
2:56 PM 55.0 °F - 37.0 °F 51% 29.93 in 10.0 mi Calm Calm - N/A   Clear
3:56 PM 57.9 °F - 37.0 °F 46% 29.91 in 10.0 mi Calm Calm - N/A   Clear
4:56 PM 57.9 °F - 37.0 °F 46% 29.89 in 10.0 mi SSW 4.6 mph - N/A   Clear
5:56 PM 55.9 °F - 37.9 °F 51% 29.88 in 10.0 mi SW 6.9 mph - N/A   Clear
7:56 PM 45.0 °F 42.6 °F 39.0 °F 80% 29.87 in 10.0 mi SE 4.6 mph - 0.00 in   Clear
8:56 PM 41.0 °F - 37.9 °F 89% 29.86 in 10.0 mi Calm Calm - N/A   Clear
9:56 PM 41.0 °F - 37.9 °F 89% 29.87 in 10.0 mi Calm Calm - N/A   Clear
10:56 PM 39.0 °F - 37.0 °F 93% 29.88 in 10.0 mi Calm Calm - N/A   Clear
11:56 PM 41.0 °F 39.0 °F 37.9 °F 89% 29.88 in 10.0 mi SSE 3.5 mph - N/A   Clear